Regional Weather Roundup
Issued by NWS Cleveland, OH

Home | Current Version | Previous Version | Graphics & Text | Print | Product List | Glossary On
Versions: 1 2 3 4 5 6 7 8 9 10 11 12 13 14 15 16 17 18 19 20 21 22 23 24 25 26 27 28 29 30 31 32 33 34 35 36 37 38 39 40 41 42 43 44 45 46 47 48 49 50
000
ASUS41 KCLE 051002
RWRCLE
OHIO REGIONAL WEATHER ROUNDUP
NATIONAL WEATHER SERVICE CLEVELAND, OH
600 AM EDT THU MAY 05 2016

NOTE: "FAIR" INDICATES FEW OR NO CLOUDS BELOW 12,000 FEET WITH NO
SIGNIFICANT WEATHER AND/OR OBSTRUCTIONS TO VISIBILITY.

OHZ001>008-015>018-024>027-034-035-043-044-051100-
   NORTHWEST OHIO

CITY           SKY/WX    TMP DP  RH WIND       PRES   REMARKS
DEFIANCE       LGT RAIN  45  41  86 NW6       29.76R
FINDLAY        LGT RAIN  43  38  82 W7        29.73S
TOLEDO EXPRESS CLOUDY    46  45  96 N10       29.74S
TOLEDO EXEC    CLOUDY    48  45  89 N7        29.74S FOG
LIMA           CLOUDY    41  39  93 NW6       29.75R
$$

OHZ009>014-019>023-028>033-038-089-051100-
   NORTHEAST OHIO

CITY           SKY/WX    TMP DP  RH WIND       PRES   REMARKS
CLE-HOPKINS    CLOUDY    49  46  90 N5        29.72R
CLE-LAKEFRONT  CLOUDY    49  44  83 NE9       29.70R
CUY CO. ARPT   NOT AVBL
LORAIN-ELYRIA  LGT RAIN  48  45  89 N7        29.70S
ASHTABULA      CLOUDY    47  44  90 CALM      29.70R
AKRON-CANTON   CLOUDY    48  45  89 N5        29.68S FOG
WOOSTER        CLOUDY    46  44  93 N7        29.70R
MANSFIELD      CLOUDY    43  43 100 W5        29.70R
YOUNGSTOWN     CLOUDY    47  45  93 E3        29.68R
$$

OHZ042-051>053-060>062-070>072-077>081-051100-
  SOUTHWEST OHIO

CITY           SKY/WX    TMP DP  RH WIND       PRES   REMARKS
CINC-COVINGTON CLOUDY    42  38  85 N6        29.73R
CINC-LUNKEN    CLOUDY    42  39  89 N5        29.75R
HAMILTON       CLOUDY    43  39  86 N5        29.76R
DAYTON         CLOUDY    39  37  92 N7        29.76R
WRIGHT-PAT AFB NOT AVBL
DAYTON GENERAL CLOUDY    39  35  86 N7        29.73R
WILMINGTON     CLOUDY    42  36  79 N6        29.72R
$$

OHZ036-037-039>041-045>050-054>059-063>069-073>076-082>088-051100-
  CENTRAL AND SOUTHEAST OHIO

CITY           SKY/WX    TMP DP  RH WIND       PRES   REMARKS
COLUMBUS       PTCLDY    40  36  86 N7        29.72R
OSU AIRPORT    CLOUDY    42  37  82 NW7       29.73R
BOLTON FIELD   NOT AVBL
RICKENBACK AFB NOT AVBL
NEWARK         CLOUDY    43  37  79 NW3       29.70S
MARION         CLOUDY    43  41  93 NW7       29.73R
LANCASTER      CLEAR     37  34  89 W3        29.72R
ZANESVILLE     CLOUDY    46  42  86 W5        29.70R
NEW PHILLY     LGT RAIN  48  46  93 NW5       29.69R FOG
$$




USA.gov is the U.S. government's official web portal to all federal, state and local government web resources and services.